[[{"header":{"parameterUnit":"m.s-1","parameterCategory":1,"la1":30.2991,"la2":30.254,"lo1":-89.0895,"lo2":-89.0444,"dy":0.0017,"dx":0.0017,"nx":28,"ny":28,"refTime":"2025-07-29T21:00:00:Z","depth":0,"parameterNumber":2,"parameterNumberName":"U-component_of_WINDS"},"data":[0,0,0,0,0,0,0,0,0,0,0,0,0,0,0,0,0,0,0,0,0,0,0,0,0,0,0,0,0,0,0,0,0,0,0,0,0,0,0,0,0,0,0,0,0,0,0,0,0,0,0,0,0,0,0,0,0,0,3.5412,3.5411,0,3.5398,3.5398,3.5398,3.5252,3.5248,3.5244,3.5241,3.5226,3.5229,3.5232,0,0,0,0,0,0,0,0,0,0,0,0,0,3.5313,3.5316,3.5412,3.5411,3.5411,3.5398,3.5398,3.5398,3.5252,3.5248,3.5243,3.5239,3.5225,3.5229,3.5233,0,0,0,0,0,0,0,0,0,0,0,0,0,3.5334,3.5317,3.5412,3.5337,3.533,3.5398,3.5398,3.5398,3.5253,3.5248,3.5242,3.5237,3.5224,3.5229,3.5233,3.5371,0,0,3.5247,3.5249,0,0,0,0,0,0,0,0,3.5333,3.5337,3.5348,3.5342,3.5335,3.5321,3.5358,3.5389,3.5254,3.5282,3.5241,3.5234,3.5262,3.5263,3.5273,3.5371,3.537,3.5248,3.525,3.5252,3.5254,0,0,0,0,0,0,0,3.5331,3.5337,3.5406,3.5349,3.534,3.5305,3.5302,3.5363,3.5303,3.528,3.5269,3.5269,3.5258,3.5269,3.5271,3.537,3.5247,3.5251,3.5254,3.5256,3.5582,3.5587,0,0,0,0,0,0,3.534,3.5337,3.5407,3.5406,3.532,3.5311,3.5308,3.5331,3.5302,3.5293,3.5274,3.5263,3.5264,3.5266,3.527,3.5429,3.5252,3.5256,3.5259,3.5576,3.5583,3.559,0,0,0,0,0,0,3.5339,3.5348,3.5407,3.5368,3.5373,3.5319,3.5346,3.5334,3.5344,3.5298,3.5287,3.5296,3.526,3.5264,3.5348,3.5427,3.5259,3.5263,3.5569,3.5578,3.5586,3.575,0,0,0,0,0,0,3.5336,3.5348,3.5399,3.5371,3.5376,3.5484,3.5351,3.5337,3.5353,3.5338,3.5316,3.5307,3.5256,3.5342,3.5352,3.543,3.5266,3.5561,3.5573,3.5584,3.5737,3.5763,3.5785,0,0,0,0,0,3.5333,3.5445,3.5402,3.5412,3.5439,3.5489,3.5492,3.543,3.536,3.5411,3.5382,3.5308,3.5418,3.5351,3.5362,3.5443,3.5556,3.557,3.5583,3.5726,3.5758,3.5785,0,0,0,0,0,0,3.5483,3.544,3.5392,3.5498,3.5499,3.5464,3.5526,3.5466,3.5486,3.5471,3.5394,3.5391,3.5486,3.5473,3.54,3.5576,3.5474,3.5491,3.558,3.561,3.5634,3.5633,3.527,0,0,0,0,0,3.5529,3.5573,3.5533,3.5631,3.5634,3.5581,3.56,3.5554,3.5551,3.555,3.5526,3.5527,3.5561,3.5585,3.5615,3.5736,3.5729,3.5798,3.5822,3.5842,3.5855,3.5919,3.5949,3.5633,3.5633,3.5633,0,0,3.5622,3.5604,3.5636,3.566,3.5655,3.5703,3.5581,3.5637,3.5671,3.5558,3.5634,3.5619,3.5615,3.5718,3.5762,3.571,3.5942,3.5859,3.5876,3.5878,3.5936,3.5966,3.5992,3.5642,3.5641,3.5639,0,0,3.5816,3.5808,3.5888,3.5887,3.5881,3.5846,3.5866,3.5842,3.5827,3.5904,3.582,3.5862,3.5923,3.5923,3.5932,3.6133,3.6065,3.6145,3.627,3.6333,3.6358,3.638,3.645,3.6476,3.616,3.616,3.616,0,3.5932,3.6001,3.5937,3.5998,3.6011,3.5914,3.5995,3.5996,3.6001,3.6013,3.5955,3.6031,3.6022,3.6124,3.6173,3.6184,3.6204,3.6144,3.636,3.6381,3.64,3.6466,3.6493,3.617,3.6168,3.6168,3.6167,0,3.6144,3.6193,3.6259,3.6267,3.6288,3.6359,3.6307,3.6337,3.629,3.6262,3.6343,3.6329,3.6353,3.6376,3.633,3.6472,3.644,3.6373,3.6268,3.6441,3.6501,3.6526,3.6183,3.618,3.6177,3.6175,0,0,3.6424,3.64,3.6425,3.6428,3.6418,3.6455,3.6524,3.6549,3.6576,3.6585,3.6639,3.6696,3.6635,3.6644,3.6599,3.6655,3.6815,3.6581,3.658,3.6623,3.697,3.7018,3.7048,3.6772,3.6777,3.6781,3.697,0,3.6609,3.6723,3.667,3.679,3.6835,3.6746,3.6806,3.6807,3.6785,3.682,3.6795,3.6836,3.6752,3.6758,3.681,3.6784,3.6883,3.677,3.6821,3.6824,3.6821,3.708,3.713,3.7308,3.6993,3.6997,3.7,0,3.6838,3.6858,3.6983,3.6967,3.6983,3.7038,3.7058,3.7094,3.7095,3.7074,3.7089,3.7032,3.7098,3.7,3.7091,3.7016,3.7035,3.7026,3.7032,3.703,3.6919,3.7083,3.7364,3.739,3.7037,3.7034,3.7031,0,3.7027,3.7086,3.7168,3.7174,3.7158,3.7198,3.7194,3.7189,3.7209,3.7228,3.724,3.7268,3.7281,3.7304,3.7257,3.7189,3.7355,3.7252,3.7339,3.734,3.7373,3.7371,3.7658,3.7393,3.7392,3.7392,3.7391,0,3.7236,3.7315,3.7253,3.7303,3.739,3.7331,3.7419,3.7405,3.7402,3.7449,3.7376,3.7421,3.7357,3.7397,3.7362,3.7442,3.745,3.7435,3.7424,3.7439,3.7441,3.7447,3.7432,3.7399,3.7397,3.7396,3.7395,0,3.7459,3.742,3.7504,3.7484,3.7482,3.7546,3.7529,3.7575,3.7551,3.7611,3.7621,3.7582,3.7625,3.7582,3.7622,3.7598,3.7706,3.7679,3.7706,3.7696,3.7785,3.7776,3.8083,3.812,3.7835,3.7837,3.784,0,3.7592,3.7651,3.7639,3.7666,3.7666,3.771,3.773,3.7677,3.7701,3.7709,3.7755,3.7793,3.7819,3.7894,3.7868,3.79,3.787,3.7976,3.7874,3.7889,3.7869,3.7864,3.7869,3.7995,3.7998,3.8001,3.8003,0,3.7832,3.7812,3.7844,3.7873,3.79,3.7919,3.7932,3.7959,3.7903,3.7936,3.798,3.8001,3.8044,3.8082,3.8107,3.8103,3.8044,3.8037,3.8058,3.8072,3.8084,3.8077,3.7758,3.8029,3.8026,3.8024,3.8023,3.8022,3.8012,3.8061,3.8061,3.8101,3.8106,3.8122,3.8165,3.8147,3.8183,3.8214,3.8181,3.8235,3.8238,3.8266,3.8269,3.8311,3.8266,3.8298,3.8305,3.8313,3.8325,3.8082,3.8316,3.8315,3.8315,3.8314,3.8314,0,3.8245,3.8242,3.8281,3.8303,3.8335,3.8281,3.8295,3.8325,3.8374,3.8382,3.8411,3.8464,3.8502,3.8483,3.8516,3.8554,3.8528,3.8564,3.8558,3.8558,3.8364,3.8341,3.8584,3.8584,3.8584,3.8584,3.8584,3.8584,3.837,3.845,3.8431,3.8514,3.8511,3.8564,3.8576,3.8591,3.8597,3.8659,3.8691,3.8679,3.8677,3.8711,3.8744,3.8738,3.8752,3.8797,3.8781,3.8599,3.8572,3.8546,3.8524,3.8802,3.8802,3.8971,3.8973,3.8974]},{"header":{"parameterUnit":"m.s-1","parameterCategory":1,"la1":30.2991,"la2":30.254,"lo1":-89.0895,"lo2":-89.0444,"dy":0.0017,"dx":0.0017,"nx":28,"ny":28,"refTime":"2025-07-29T21:00:00:Z","depth":0,"parameterNumber":3,"parameterNumberName":"V-component_of_WINDS"},"data":[0,0,0,0,0,0,0,0,0,0,0,0,0,0,0,0,0,0,0,0,0,0,0,0,0,0,0,0,0,0,0,0,0,0,0,0,0,0,0,0,0,0,0,0,0,0,0,0,0,0,0,0,0,0,0,0,0,0,2.5107,2.5109,0,2.5263,2.5265,2.5267,2.5299,2.5298,2.5297,2.5295,2.5457,2.5462,2.5467,0,0,0,0,0,0,0,0,0,0,0,0,0,2.484,2.4845,2.5107,2.5109,2.5111,2.5263,2.5265,2.5267,2.5299,2.5298,2.5296,2.5295,2.5455,2.5461,2.5468,0,0,0,0,0,0,0,0,0,0,0,0,0,2.4972,2.4847,2.5107,2.5145,2.515,2.5263,2.5265,2.5268,2.5299,2.5298,2.5296,2.5294,2.5453,2.5461,2.5469,2.5554,0,0,2.5493,2.5497,0,0,0,0,0,0,0,0,2.4965,2.4982,2.5138,2.5143,2.5149,2.526,2.523,2.5364,2.53,2.5243,2.5295,2.5293,2.5393,2.5406,2.5439,2.5562,2.5569,2.5494,2.5499,2.5503,2.5505,0,0,0,0,0,0,0,2.4956,2.4975,2.5169,2.514,2.5147,2.5156,2.5173,2.5256,2.5326,2.5248,2.525,2.5268,2.5395,2.5431,2.5443,2.5571,2.5494,2.5501,2.5506,2.5509,2.5774,2.5776,0,0,0,0,0,0,2.4939,2.4968,2.5164,2.5174,2.505,2.5162,2.5181,2.5226,2.5325,2.5338,2.527,2.5269,2.5418,2.5433,2.5449,2.5556,2.5502,2.551,2.5515,2.5771,2.5774,2.5776,0,0,0,0,0,0,2.4933,2.4956,2.5158,2.5072,2.5098,2.5168,2.5219,2.523,2.5265,2.5342,2.5355,2.5293,2.5417,2.5437,2.5528,2.5562,2.5514,2.5521,2.5769,2.5772,2.5775,2.5771,0,0,0,0,0,0,2.4926,2.4954,2.4987,2.5072,2.5102,2.5234,2.5221,2.5234,2.5279,2.528,2.5367,2.538,2.5417,2.5516,2.5536,2.5572,2.5527,2.5766,2.577,2.5774,2.5768,2.5773,2.5778,0,0,0,0,0,2.4916,2.4979,2.4988,2.5012,2.5144,2.5235,2.5253,2.5295,2.5282,2.5316,2.5365,2.5377,2.5555,2.5525,2.5548,2.5587,2.5764,2.5769,2.5774,2.5766,2.5772,2.5778,0,0,0,0,0,0,2.4896,2.4991,2.5002,2.5094,2.5157,2.5241,2.5284,2.53,2.5367,2.5365,2.5415,2.5434,2.5522,2.5564,2.5528,2.5676,2.5659,2.5669,2.5645,2.5652,2.5657,2.5645,2.5534,0,0,0,0,0,2.4903,2.4968,2.5048,2.5122,2.5152,2.5213,2.5254,2.5281,2.5348,2.5374,2.543,2.5495,2.5566,2.5611,2.5681,2.5775,2.5795,2.5813,2.5818,2.5822,2.583,2.5884,2.5893,2.5792,2.5792,2.5792,0,0,2.4917,2.4976,2.5015,2.5119,2.5171,2.5238,2.5235,2.5306,2.5357,2.5385,2.5474,2.5518,2.5594,2.5686,2.573,2.5724,2.5862,2.5828,2.583,2.5836,2.589,2.5899,2.5907,2.5796,2.5795,2.5795,0,0,2.4976,2.5028,2.5096,2.5147,2.5225,2.5265,2.5281,2.5364,2.5393,2.5483,2.5506,2.5568,2.5689,2.5742,2.5785,2.5867,2.5881,2.5888,2.5914,2.5966,2.5974,2.5981,2.6011,2.6021,2.5896,2.5896,2.5896,0,2.4984,2.5086,2.5129,2.5199,2.5245,2.5274,2.5344,2.5392,2.5488,2.552,2.5511,2.5664,2.5717,2.5824,2.5844,2.5877,2.5898,2.5878,2.5969,2.5977,2.5984,2.6013,2.6024,2.5896,2.5896,2.5896,2.5896,0,2.5091,2.5162,2.5207,2.5299,2.5351,2.542,2.5475,2.5522,2.5545,2.5586,2.5679,2.5743,2.5827,2.5854,2.5877,2.5964,2.5958,2.5959,2.5943,2.5993,2.6021,2.6033,2.5897,2.5897,2.5896,2.5896,0,0,2.5142,2.5258,2.5274,2.5316,2.5405,2.5461,2.5533,2.5614,2.5653,2.572,2.5782,2.5884,2.5885,2.5934,2.5964,2.601,2.6071,2.6005,2.6008,2.6015,2.6172,2.6171,2.6183,2.6081,2.6084,2.6085,2.6166,0,2.5212,2.534,2.5382,2.5489,2.5555,2.5584,2.5647,2.5709,2.575,2.5813,2.5859,2.5931,2.5927,2.5957,2.6003,2.6054,2.6103,2.6048,2.614,2.6143,2.612,2.6198,2.6197,2.627,2.6177,2.6179,2.6181,0,2.5311,2.5379,2.5492,2.5573,2.5603,2.5658,2.5737,2.5796,2.5868,2.5895,2.595,2.5976,2.6054,2.6034,2.6142,2.6104,2.6144,2.6175,2.6179,2.6189,2.6165,2.621,2.6294,2.6305,2.6198,2.6197,2.6196,0,2.5337,2.5456,2.554,2.5575,2.5672,2.5711,2.5753,2.5823,2.5869,2.5939,2.597,2.6047,2.6089,2.6149,2.6196,2.6177,2.6301,2.6284,2.6326,2.6325,2.635,2.6348,2.6442,2.6376,2.6376,2.6376,2.6376,0,2.5411,2.5479,2.5553,2.5604,2.5682,2.573,2.5806,2.5851,2.5913,2.5974,2.6004,2.6062,2.612,2.6186,2.6223,2.6308,2.6327,2.6351,2.6361,2.6349,2.6346,2.6376,2.6372,2.6379,2.6378,2.6377,2.6377,0,2.5452,2.5504,2.5597,2.5682,2.5704,2.5758,2.5831,2.5883,2.5926,2.6003,2.6024,2.6092,2.6171,2.6224,2.6325,2.635,2.6442,2.645,2.6417,2.6422,2.6461,2.6456,2.6577,2.6596,2.6517,2.6518,2.6518,0,2.5496,2.5549,2.5639,2.5682,2.5725,2.5794,2.5842,2.5892,2.5941,2.6027,2.6069,2.6149,2.6216,2.6341,2.64,2.6478,2.6488,2.6525,2.65,2.6487,2.6489,2.6486,2.6492,2.6529,2.6529,2.653,2.653,0,2.5568,2.5592,2.5659,2.5736,2.5792,2.5855,2.5918,2.5952,2.6014,2.6067,2.6148,2.62,2.6304,2.6384,2.6467,2.6512,2.6532,2.6538,2.6552,2.654,2.6519,2.6532,2.6428,2.6535,2.6534,2.6534,2.6534,2.6534,2.5613,2.5662,2.5733,2.5808,2.5861,2.592,2.5973,2.6022,2.609,2.6178,2.6204,2.6288,2.636,2.6474,2.6521,2.6588,2.6585,2.6605,2.661,2.6614,2.6615,2.6509,2.6604,2.6604,2.6604,2.6604,2.6604,0,2.5687,2.5734,2.5802,2.589,2.5949,2.5962,2.6034,2.6083,2.6156,2.6221,2.6287,2.6381,2.6459,2.6524,2.6606,2.6647,2.6659,2.6667,2.6665,2.6675,2.6612,2.6593,2.6657,2.6657,2.6657,2.6657,2.6657,2.6657,2.5732,2.5816,2.5848,2.596,2.6008,2.609,2.613,2.6185,2.6237,2.634,2.6405,2.6447,2.6513,2.66,2.6673,2.669,2.6719,2.6726,2.6745,2.6685,2.6679,2.6674,2.6655,2.6731,2.6732,2.6802,2.6803,2.6803]}]]